Hourly Data Report for September 06, 2020

OTTAWA INTL A
ONTARIO
Current Station Operator: NAVCAN

45°19'00.000" N
75°40'00.000" W
114.90 m
6106001
71628
YOW

Download Data

Hourly Data (September 2020)
Hourly Data Report for September 6, 2020
TIME
LST
Temp Definition
°C
Dew Point Definition
°C
Rel Hum Definition
%
Precip. Amount Definition
mm

Wind Dir Definition
10's deg

Wind Spd Definition
km/h
Visibility Definition
km
Stn Press Definition
kPa
Hmdx Definition


Wind Chill Definition


Weather Definition


00:00 10.4 9.9 97   28 7 24.1 100.60     LegendNANA
01:00 10.3 9.9 98   22 8 24.1 100.60     Clear
02:00 9.2 8.8 98   22 9 24.1 100.60     LegendNANA
03:00 9.0 8.8 99   21 8 24.1 100.61     LegendNANA
04:00 8.8 8.6 99   22 9 24.1 100.65     Clear
05:00 7.8 7.7 99   25 9 24.1 100.72     LegendNANA
06:00 8.3 8.2 99   27 12 24.1 100.77     LegendNANA
07:00 11.0 10.3 96   27 12 24.1 100.71     Mainly Clear
08:00 12.7 10.8 88   27 13 24.1 100.84     LegendNANA
09:00 14.4 11.1 80   28 13 24.1 100.91     LegendNANA
10:00 16.0 11.1 72   30 8 24.1 100.92     Mainly Clear
11:00 18.3 9.0 54   26 12 24.1 100.93     LegendNANA
12:00 18.6 9.7 56   35 5 24.1 100.87     LegendNANA
13:00 19.1 7.3 46   23 11 24.1 100.82     Cloudy
14:00 19.7 8.2 47   29 6 24.1 100.78     LegendNANA
15:00 19.5 8.3 48   18 11 24.1 100.74     LegendNANA
16:00 19.4 8.2 48   16 10 24.1 100.68     Mostly Cloudy
17:00 18.3 10.3 59   13 10 24.1 100.65     LegendNANA
18:00 16.0 10.2 68   16 10 24.1 100.57     LegendNANA
19:00 13.5 9.6 77   13 12 24.1 100.52     Mainly Clear
20:00 12.8 8.5 75   14 5 24.1 100.64     LegendNANA
21:00 12.0 8.3 78   14 13 24.1 100.50     LegendNANA
22:00 12.1 9.2 82   13 15 24.1 100.38     Clear
23:00 12.3 9.1 80   13 16 24.1 100.26     LegendNANA

Notes on Data Quality.

Legend

  • E = Estimated
  • M = Missing
  • NA = Not Available*
  • [empty] = Indicates an unobserved value
Date modified: